N3ATE Weather Reports


time (UTC)temp
C
wind
direction
speed
KPH
gust
KPH
rain 1hr
cm
rain 24hr
cm
rain mn
cm
humidity
%
barometer
mb
20260507070037 9 174 0.0 4.8 0.00 0.61 0.00 83 1009.2
20260507064602 9 196 0.0 4.8 0.00 0.61 0.00 84 1009.4
20260507063024 9 295 1.6 12.9 0.00 0.61 0.00 86 1009.4
20260507061533 9 279 1.6 8.0 0.00 0.61 0.00 89 1009.3
20260507054529 9 139 0.0 0.0 0.00 0.61 0.00 91 1009.0
20260507053049 9 138 0.0 0.0 0.00 0.61 0.00 91 1009.2
20260507051517 9 96 0.0 0.0 0.00 0.61 0.00 92 1008.9
20260507050047 9 96 0.0 0.0 0.00 0.61 0.00 92 1008.8
20260507044513 9 28 0.0 0.0 0.00 0.61 0.00 92 1008.7
20260507043044 9 28 0.0 0.0 0.00 0.61 0.00 93 1008.7
20260507041525 9 28 0.0 1.6 0.00 0.61 0.00 92 1008.7
20260507040036 9 28 0.0 0.0 0.00 0.61 0.00 92 1008.9
20260507034504 10 28 0.0 0.0 0.00 0.61 0.61 91 1008.8
20260507033033 10 28 0.0 0.0 0.00 0.61 0.61 91 1009.1
20260507031558 10 29 0.0 0.0 0.00 0.61 0.61 89 1008.6
20260507030021 10 29 0.0 0.0 0.00 0.61 0.61 89 1008.5
20260507024603 10 29 0.0 3.2 0.00 0.61 0.61 88 1008.5
20260507023001 10 29 0.0 1.6 0.00 0.61 0.61 89 1008.7
20260507021533 10 29 0.0 4.8 0.00 0.61 0.61 88 1009.4
20260507020112 10 29 0.0 3.2 0.00 0.61 0.61 88 1009.2
20260507014539 10 360 3.2 9.7 0.00 0.61 0.61 87 1009.3
20260507013045 10 9 4.8 12.9 0.00 0.61 0.61 88 1009.2
20260507011554 11 11 0.0 6.4 0.00 0.61 0.61 89 1009.3
20260507010015 11 360 3.2 8.0 0.00 0.61 0.61 88 1008.9
20260507004541 11 360 6.4 12.9 0.00 0.61 0.61 88 1008.6
20260507003101 11 360 4.8 8.0 0.00 0.61 0.61 87 1008.3
20260507001526 11 11 8.0 14.5 0.00 0.61 0.61 87 1007.9
20260507000033 12 360 8.0 12.9 0.00 0.61 0.61 86 1007.5
20260506234612 12 13 0.0 1.6 0.00 0.61 0.61 87 1007.3
20260506233018 12 360 4.8 12.9 0.00 0.61 0.61 86 1007.1
20260506231544 12 360 0.0 9.7 0.00 0.61 0.61 87 1006.6
20260506224520 13 360 0.0 4.8 0.00 0.61 0.61 88 1006.1
20260506223054 13 360 1.6 14.5 0.00 0.61 0.61 88 1005.5
20260506221501 15 328 0.0 16.1 0.00 0.61 0.61 87 1005.2
20260506220031 16 331 8.0 22.5 0.00 0.61 0.61 88 1004.9
20260506214604 17 360 0.0 12.9 0.00 0.61 0.61 91 1004.2
20260506213029 17 360 0.0 4.8 0.00 0.61 0.61 90 1004.1
20260506211603 17 360 6.4 14.5 0.00 0.61 0.61 90 1003.9
20260506210009 17 360 1.6 11.3 0.00 0.61 0.61 90 1003.7
20260506204547 17 244 1.6 14.5 0.00 0.61 0.61 90 1003.5
20260506203007 17 250 3.2 16.1 0.00 0.61 0.61 90 1003.5
20260506201553 17 200 3.2 17.7 0.00 0.61 0.61 91 1003.4
20260506200058 17 257 1.6 19.3 0.00 0.61 0.61 91 1003.5
20260506194521 17 194 1.6 9.7 0.00 0.61 0.61 92 1003.6
20260506193036 16 197 4.8 12.9 0.00 0.61 0.61 93 1003.7
20260506191610 16 360 6.4 17.7 0.00 0.61 0.61 93 1003.7
20260506190025 16 197 8.0 17.7 0.00 0.61 0.61 93 1003.8
20260506184607 16 207 3.2 22.5 0.00 0.61 0.61 95 1003.7
20260506183005 16 192 1.6 16.1 0.00 0.61 0.61 96 1003.9
20260506181537 15 205 0.0 6.4 0.00 0.61 0.61 97 1004.2
20260506180054 15 360 3.2 12.9 0.03 0.61 0.61 97 1004.2
20260506174518 15 360 1.6 6.4 0.03 0.61 0.61 97 1004.2
20260506173034 15 360 1.6 6.4 0.03 0.61 0.61 97 1004.2
20260506171604 15 360 0.0 8.0 0.03 0.61 0.61 96 1004.3
20260506170041 15 360 0.0 4.8 0.00 0.58 0.58 96 1004.4
20260506164551 15 360 0.0 3.2 0.00 0.58 0.58 96 1004.3
20260506163020 15 360 0.0 1.6 0.03 0.58 0.58 96 1004.3
20260506161540 15 190 0.0 4.8 0.05 0.58 0.58 96 1004.4
20260506160115 15 190 0.0 6.4 0.10 0.58 0.58 96 1004.3
20260506154531 15 263 0.0 4.8 0.13 0.58 0.58 96 1004.2
20260506153054 15 360 0.0 0.0 0.15 0.56 0.56 96 1004.0
20260506151522 15 198 0.0 0.0 0.15 0.53 0.53 95 1004.4
20260506150046 15 198 0.0 1.6 0.15 0.48 0.48 95 1004.6
20260506144515 15 198 0.0 4.8 0.15 0.43 0.43 95 1004.5
20260506143044 15 199 0.0 4.8 0.15 0.41 0.41 95 1004.5
20260506141600 15 211 0.0 1.6 0.15 0.38 0.38 95 1004.5
20260506140002 15 211 0.0 0.0 0.18 0.33 0.33 94 1004.6
20260506134532 15 211 0.0 4.8 0.18 0.28 0.28 94 1004.7
20260506133103 15 360 0.0 6.4 0.20 0.25 0.25 93 1004.6
20260506131533 15 210 0.0 0.0 0.20 0.23 0.23 93 1004.8
20260506130100 15 209 0.0 0.0 0.13 0.15 0.15 91 1005.0
20260506124524 15 209 0.0 0.0 0.10 0.10 0.10 90 1005.2
20260506123046 15 210 0.0 1.6 0.05 0.05 0.05 88 1005.3
20260506121518 16 210 1.6 8.0 0.03 0.03 0.03 85 1005.1
20260506120042 16 360 8.0 24.1 0.03 0.03 0.03 81 1004.9
20260506114505 17 192 3.2 12.9 0.00 0.00 0.00 79 1004.7
20260506113035 17 360 1.6 9.7 0.00 0.00 0.00 75 1004.6
20260506111505 17 250 0.0 0.0 0.00 0.00 0.00 73 1004.5
20260506110034 18 196 0.0 1.6 0.00 0.00 0.00 70 1004.2
20260506104501 18 194 0.0 1.6 0.00 0.00 0.00 69 1004.1
20260506103018 18 202 0.0 4.8 0.00 0.00 0.00 69 1003.9
20260506101550 18 202 4.8 14.5 0.00 0.00 0.00 67 1003.7
20260506100002 19 189 1.6 12.9 0.00 0.00 0.00 66 1003.5
20260506094534 19 191 6.4 16.1 0.00 0.00 0.00 65 1003.8
20260506093103 18 212 1.6 11.3 0.00 0.00 0.00 66 1003.9
20260506091529 18 207 1.6 8.0 0.00 0.00 0.00 66 1003.9
20260506084525 17 200 0.0 0.0 0.00 0.00 0.00 67 1004.0
20260506083032 18 200 0.0 3.2 0.00 0.00 0.00 65 1004.1
20260506081608 18 200 0.0 8.0 0.00 0.00 0.00 64 1004.0
20260506073021 17 206 0.0 1.6 0.00 0.00 0.00 65 1004.0
20260506071551 16 360 1.6 6.4 0.00 0.00 0.00 69 1004.1